STARLINK-31061 (58611 NORAD) Tracking and Keplerian Element Data

This shows tracking and keplerian element data for the satellite.

Feedback or suggestion? Click here.




ElementValue
Catalog58611
NameSTARLINK-31061
Epoch Orbit518
Epoch Day13.25002315
Epoch Year2024
RAAN133.8444
Inclination43.0008
Eccentricity0.0001556
Argument of Perigee258.7993
Mean Anonmoly54.4145
Mean Motion15.36428208
Decay Rate-0.02164228
L11 58611U 23200Y 24013.25002315 -.02164228 00000+0 -66336-1 0 9997
L22 58611 43.0008 133.8444 0001556 258.7993 54.4145 15.36428208 5181



Live tracking and technical data element details for STARLINK-31061 (NORAD 58611). STARLINK-31061 can be tracked NOW for your location showing map with azimuth and elevation plus other details from your city location.







IsCatalogInMostPopularTable: catalog: 58611, numindb: 25
Update: records affected: 1



GetName: 58611 STARLINK-31061

Hit Count: updated at: Wed, 17 Apr 2024 02:09:35 GMT